Time,TemperatureF,DewpointF,PressureIn,WindDirection,WindDirectionDegrees,WindSpeedMPH,WindSpeedGustMPH,Humidity,HourlyPrecipIn,Conditions,Clouds,dailyrainin,SoftwareType,DateUTC
2013-07-28 00:02:00,48.0,42.0,-100.00,West,263,0.0,1.0,79,0.00,,,0.02,,2013-07-28 06:02:00,
2013-07-28 00:12:00,48.0,41.0,-100.00,West,263,0.0,0.0,78,0.00,,,0.02,,2013-07-28 06:12:00,
2013-07-28 00:22:00,48.0,42.0,-100.00,West,263,0.0,1.0,79,0.00,,,0.02,,2013-07-28 06:22:00,
2013-07-28 00:32:00,48.0,42.0,-100.00,West,263,0.0,0.0,79,0.00,,,0.02,,2013-07-28 06:32:00,
2013-07-28 00:42:00,48.0,42.0,-100.00,West,263,0.0,0.0,79,0.00,,,0.02,,2013-07-28 06:42:00,
2013-07-28 00:52:00,48.0,42.0,-100.00,West,263,0.0,0.0,79,0.00,,,0.02,,2013-07-28 06:52:00,
2013-07-28 01:02:00,48.0,42.0,-100.00,West,263,0.0,0.0,79,0.00,,,0.02,,2013-07-28 07:02:00,
2013-07-28 05:22:00,39.0,35.0,-100.00,ENE,72,1.0,2.0,85,0.00,,,0.02,,2013-07-28 11:22:00,
2013-07-28 05:33:00,40.0,36.0,-100.00,ENE,72,0.0,1.0,86,0.00,,,0.02,,2013-07-28 11:33:00,
2013-07-28 05:43:00,39.0,35.0,-100.00,ENE,73,0.0,0.0,85,0.00,,,0.02,,2013-07-28 11:43:00,
2013-07-28 05:54:00,39.0,35.0,-100.00,ENE,73,0.0,1.0,85,0.00,,,0.02,,2013-07-28 11:54:00,
2013-07-28 06:02:00,38.0,34.0,-100.00,ENE,72,0.0,0.0,85,0.00,,,0.02,,2013-07-28 12:02:00,
2013-07-28 06:11:00,38.0,34.0,-100.00,ENE,72,0.0,0.0,85,0.00,,,0.02,,2013-07-28 12:11:00,
2013-07-28 06:22:00,38.0,34.0,-100.00,ENE,72,0.0,1.0,85,0.00,,,0.02,,2013-07-28 12:22:00,
2013-07-28 06:32:00,38.0,34.0,-100.00,ENE,72,0.0,1.0,86,0.00,,,0.02,,2013-07-28 12:32:00,
2013-07-28 06:43:00,38.0,34.0,-100.00,ENE,72,0.0,2.0,85,0.00,,,0.02,,2013-07-28 12:43:00,
2013-07-28 06:53:00,38.0,34.0,-100.00,ENE,72,0.0,0.0,86,0.00,,,0.02,,2013-07-28 12:53:00,
2013-07-28 07:12:00,39.0,35.0,-100.00,ENE,73,0.0,0.0,86,0.00,,,0.02,,2013-07-28 13:12:00,
2013-07-28 07:32:00,40.0,36.0,-100.00,ENE,73,0.0,1.0,87,0.00,,,0.02,,2013-07-28 13:32:00,
2013-07-28 07:43:00,40.0,36.0,-100.00,ENE,73,0.0,0.0,87,0.00,,,0.02,,2013-07-28 13:43:00,
2013-07-28 07:52:00,41.0,38.0,-100.00,ENE,72,0.0,0.0,88,0.00,,,0.02,,2013-07-28 13:52:00,
2013-07-28 08:33:00,50.0,43.0,-100.00,ENE,73,0.0,1.0,77,0.00,,,0.02,,2013-07-28 14:33:00,
2013-07-28 08:53:00,51.0,43.0,-100.00,ENE,72,0.0,1.0,74,0.00,,,0.02,,2013-07-28 14:53:00,
2013-07-28 09:22:00,56.0,44.0,-100.00,ENE,73,0.0,1.0,64,0.00,,,0.02,,2013-07-28 15:22:00,
2013-07-28 09:32:00,59.0,45.0,-100.00,ENE,78,0.0,1.0,60,0.00,,,0.02,,2013-07-28 15:32:00,
2013-07-28 10:32:00,65.0,47.0,-100.00,SSW,197,0.0,2.0,52,0.00,,,0.02,,2013-07-28 16:32:00,
2013-07-28 12:12:00,72.0,43.0,-100.00,ESE,121,1.0,10.0,35,0.00,,,0.02,,2013-07-28 18:12:00,
2013-07-28 12:32:00,72.0,41.0,-100.00,West,265,3.0,8.0,33,0.00,,,0.02,,2013-07-28 18:32:00,
2013-07-28 12:42:00,72.0,42.0,-100.00,WSW,252,2.0,8.0,34,0.00,,,0.02,,2013-07-28 18:42:00,
2013-07-28 12:52:00,73.0,43.0,-100.00,SW,219,2.0,6.0,34,0.00,,,0.02,,2013-07-28 18:52:00,
2013-07-28 13:11:00,75.0,45.0,-100.00,SSW,201,6.0,11.0,34,0.00,,,0.02,,2013-07-28 19:11:00,
2013-07-28 13:32:00,76.0,44.0,-100.00,South,184,4.0,9.0,32,0.00,,,0.02,,2013-07-28 19:32:00,
2013-07-28 13:52:00,78.0,43.0,-100.00,NW,321,1.0,9.0,29,0.00,,,0.02,,2013-07-28 19:52:00,
2013-07-28 14:02:00,78.0,41.0,-100.00,SW,226,4.0,9.0,27,0.00,,,0.02,,2013-07-28 20:02:00,
2013-07-28 14:12:00,76.0,41.0,-100.00,SSW,212,2.0,11.0,29,0.00,,,0.02,,2013-07-28 20:12:00,
2013-07-28 14:22:00,75.0,41.0,-100.00,SW,217,0.0,7.0,29,0.00,,,0.01,,2013-07-28 20:22:00,
2013-07-28 14:32:00,74.0,38.0,-100.00,West,265,3.0,14.0,27,0.00,,,0.01,,2013-07-28 20:32:00,
2013-07-28 14:43:00,74.0,39.0,-100.00,West,259,6.0,14.0,28,0.00,,,0.01,,2013-07-28 20:43:00,
2013-07-28 14:52:00,72.0,37.0,-100.00,West,259,2.0,8.0,28,0.00,,,0.01,,2013-07-28 20:52:00,
2013-07-28 15:02:00,72.0,38.0,-100.00,SSW,213,0.0,3.0,29,0.00,,,0.01,,2013-07-28 21:02:00,
2013-07-28 15:11:00,73.0,39.0,-100.00,SSW,213,1.0,3.0,29,0.00,,,0.01,,2013-07-28 21:11:00,
2013-07-28 15:32:00,76.0,41.0,-100.00,South,178,1.0,6.0,29,0.00,,,0.00,,2013-07-28 21:32:00,
2013-07-28 15:43:00,76.0,41.0,-100.00,WSW,242,1.0,6.0,28,0.00,,,0.00,,2013-07-28 21:43:00,
2013-07-28 15:52:00,76.0,42.0,-100.00,WSW,242,0.0,8.0,30,0.00,,,0.00,,2013-07-28 21:52:00,
2013-07-28 16:01:00,74.0,45.0,-100.00,ESE,113,5.0,15.0,35,0.00,,,0.00,,2013-07-28 22:01:00,
2013-07-28 16:11:00,71.0,43.0,-100.00,WSW,254,2.0,15.0,37,0.00,,,0.00,,2013-07-28 22:11:00,
2013-07-28 16:32:00,70.0,43.0,-100.00,SE,135,0.0,1.0,37,0.00,,,0.00,,2013-07-28 22:32:00,
2013-07-28 16:42:00,71.0,43.0,-100.00,SW,222,0.0,3.0,37,0.00,,,0.00,,2013-07-28 22:42:00,
2013-07-28 17:53:00,63.0,40.0,-100.00,SW,234,8.0,23.0,42,0.01,,,0.01,,2013-07-28 23:53:00,
2013-07-28 18:02:00,63.0,38.0,-100.00,West,263,8.0,15.0,40,0.01,,,0.01,,2013-07-29 00:02:00,
2013-07-28 18:11:00,63.0,38.0,-100.00,West,263,8.0,15.0,40,0.01,,,0.01,,2013-07-29 00:11:00,
2013-07-28 18:21:00,63.0,38.0,-100.00,West,263,8.0,15.0,40,0.01,,,0.01,,2013-07-29 00:21:00,
2013-07-28 18:32:00,63.0,38.0,-100.00,West,263,8.0,15.0,40,0.01,,,0.01,,2013-07-29 00:32:00,
2013-07-28 18:43:00,63.0,38.0,-100.00,West,263,8.0,15.0,40,0.01,,,0.01,,2013-07-29 00:43:00,